| time (UTC) | temp F | wind direction | speed MPH | gust MPH | rain 1hr in | rain 24hr in | rain mn in | humidity % | barometer mb |
| 20260905160004 | 88 | 253 | 5.0 | 12.0 | 0.00 | 0.00 | 0.00 | 51 | 1017.1 |
| 20260905155001 | 90 | 234 | 6.0 | 14.0 | 0.00 | 0.00 | 0.00 | 49 | 1017.2 |
| 20260905154503 | 90 | 231 | 9.0 | 15.0 | 0.00 | 0.00 | 0.00 | 49 | 1017.1 |
| 20260905153503 | 91 | 244 | 10.0 | 16.0 | 0.00 | 0.00 | 0.00 | 47 | 1016.8 |
| 20260905153003 | 92 | 234 | 9.0 | 14.0 | 0.00 | 0.00 | 0.00 | 47 | 1016.9 |
| 20260905152503 | 92 | 233 | 9.0 | 16.0 | 0.00 | 0.00 | 0.00 | 47 | 1016.9 |
| 20260905152003 | 92 | 243 | 10.0 | 18.0 | 0.00 | 0.00 | 0.00 | 47 | 1016.8 |
| 20260905151502 | 91 | 233 | 12.0 | 20.0 | 0.00 | 0.00 | 0.00 | 47 | 1016.7 |
| 20260905150503 | 91 | 228 | 10.0 | 16.0 | 0.00 | 0.00 | 0.00 | 46 | 1016.7 |
| 20260905150004 | 91 | 237 | 6.0 | 13.0 | 0.00 | 0.00 | 0.00 | 47 | 1016.8 |
| 20260905145503 | 91 | 239 | 9.0 | 20.0 | 0.00 | 0.00 | 0.00 | 45 | 1016.8 |
| 20260905143504 | 92 | 223 | 7.0 | 14.0 | 0.00 | 0.00 | 0.00 | 46 | 1016.8 |
| 20260905143003 | 92 | 235 | 8.0 | 16.0 | 0.00 | 0.00 | 0.00 | 45 | 1016.8 |
| 20260905142502 | 92 | 238 | 10.0 | 16.0 | 0.00 | 0.00 | 0.00 | 44 | 1016.7 |
| 20260905141002 | 92 | 243 | 6.0 | 12.0 | 0.00 | 0.00 | 0.00 | 46 | 1016.8 |
| 20260905140503 | 93 | 284 | 5.0 | 9.0 | 0.00 | 0.00 | 0.00 | 44 | 1016.8 |
| 20260905140005 | 93 | 250 | 6.0 | 12.0 | 0.00 | 0.00 | 0.00 | 42 | 1016.9 |
| 20260905135503 | 93 | 245 | 9.0 | 15.0 | 0.00 | 0.00 | 0.00 | 43 | 1016.8 |
| 20260905135003 | 93 | 238 | 5.0 | 13.0 | 0.00 | 0.00 | 0.00 | 42 | 1016.8 |
| 20260905134503 | 94 | 263 | 6.0 | 12.0 | 0.00 | 0.00 | 0.00 | 41 | 1016.8 |
| 20260905133503 | 95 | 252 | 7.0 | 12.0 | 0.00 | 0.00 | 0.00 | 40 | 1016.8 |
| 20260905133004 | 96 | 242 | 6.0 | 12.0 | 0.00 | 0.00 | 0.00 | 40 | 1016.8 |
| 20260905132503 | 95 | 264 | 7.0 | 12.0 | 0.00 | 0.00 | 0.00 | 41 | 1016.8 |
| 20260905132001 | 95 | 254 | 6.0 | 12.0 | 0.00 | 0.00 | 0.00 | 41 | 1016.8 |
| 20260905131503 | 95 | 254 | 6.0 | 12.0 | 0.00 | 0.00 | 0.00 | 41 | 1016.8 |
| 20260905131003 | 95 | 243 | 10.0 | 20.0 | 0.00 | 0.00 | 0.00 | 40 | 1016.8 |
| 20260905130004 | 95 | 249 | 6.0 | 12.0 | 0.00 | 0.00 | 0.00 | 40 | 1016.8 |
| 20260905125503 | 95 | 284 | 6.0 | 12.0 | 0.00 | 0.00 | 0.00 | 40 | 1016.8 |
| 20260905125003 | 95 | 250 | 6.0 | 14.0 | 0.00 | 0.00 | 0.00 | 40 | 1016.9 |
| 20260905124502 | 94 | 246 | 9.0 | 14.0 | 0.00 | 0.00 | 0.00 | 41 | 1016.8 |
| 20260905124003 | 94 | 245 | 10.0 | 15.0 | 0.00 | 0.00 | 0.00 | 40 | 1016.8 |
| 20260905123503 | 94 | 240 | 8.0 | 13.0 | 0.00 | 0.00 | 0.00 | 40 | 1016.8 |
| 20260905123004 | 93 | 267 | 4.0 | 9.0 | 0.00 | 0.00 | 0.00 | 41 | 1016.8 |
| 20260905122502 | 94 | 251 | 5.0 | 12.0 | 0.00 | 0.00 | 0.00 | 41 | 1016.8 |
| 20260905122002 | 94 | 256 | 5.0 | 13.0 | 0.00 | 0.00 | 0.00 | 38 | 1016.8 |
| 20260905121502 | 94 | 257 | 6.0 | 9.0 | 0.00 | 0.00 | 0.00 | 39 | 1016.8 |
| 20260905121003 | 94 | 244 | 4.0 | 8.0 | 0.00 | 0.00 | 0.00 | 39 | 1016.8 |
| 20260905115003 | 93 | 254 | 5.0 | 8.0 | 0.00 | 0.00 | 0.00 | 41 | 1017.1 |
| 20260905114003 | 93 | 250 | 6.0 | 12.0 | 0.00 | 0.00 | 0.00 | 38 | 1017.3 |
| 20260905113504 | 92 | 315 | 1.0 | 6.0 | 0.00 | 0.00 | 0.00 | 40 | 1017.3 |
| 20260905113006 | 92 | 329 | 2.0 | 6.0 | 0.00 | 0.00 | 0.00 | 43 | 1017.4 |
| 20260905112504 | 92 | 32 | 1.0 | 3.0 | 0.00 | 0.00 | 0.00 | 41 | 1017.5 |
| 20260905112003 | 92 | 32 | 1.0 | 3.0 | 0.00 | 0.00 | 0.00 | 39 | 1017.5 |
| 20260905111502 | 91 | 34 | 0.0 | 2.0 | 0.00 | 0.00 | 0.00 | 46 | 1017.6 |
| 20260905111003 | 90 | 34 | 0.0 | 0.0 | 0.00 | 0.00 | 0.00 | 45 | 1017.7 |
| 20260905110504 | 89 | 34 | 0.0 | 1.0 | 0.00 | 0.00 | 0.00 | 48 | 1017.8 |
| 20260905110005 | 89 | 34 | 0.0 | 1.0 | 0.00 | 0.00 | 0.00 | 47 | 1017.8 |
| 20260905105504 | 89 | 34 | 0.0 | 3.0 | 0.00 | 0.00 | 0.00 | 47 | 1017.8 |
| 20260905105002 | 89 | 34 | 1.0 | 2.0 | 0.00 | 0.00 | 0.00 | 49 | 1017.7 |
| 20260905104503 | 88 | 34 | 0.0 | 2.0 | 0.00 | 0.00 | 0.00 | 50 | 1017.8 |
| 20260905104001 | 88 | 34 | 0.0 | 2.0 | 0.00 | 0.00 | 0.00 | 50 | 1017.8 |
| 20260905103504 | 87 | 33 | 0.0 | 1.0 | 0.00 | 0.00 | 0.00 | 50 | 1017.9 |
| 20260905103004 | 87 | 33 | 0.0 | 0.0 | 0.00 | 0.00 | 0.00 | 55 | 1017.9 |
| 20260905101503 | 85 | 33 | 0.0 | 0.0 | 0.00 | 0.00 | 0.00 | 55 | 1017.9 |
| 20260905101004 | 85 | 33 | 0.0 | 1.0 | 0.00 | 0.00 | 0.00 | 56 | 1018.0 |
| 20260905100503 | 84 | 32 | 0.0 | 1.0 | 0.00 | 0.00 | 0.00 | 56 | 1018.0 |
| 20260905100003 | 84 | 32 | 0.0 | 0.0 | 0.00 | 0.00 | 0.00 | 56 | 1018.0 |
| 20260905095504 | 83 | 32 | 0.0 | 0.0 | 0.00 | 0.00 | 0.00 | 58 | 1018.0 |
| 20260905095003 | 83 | 32 | 0.0 | 1.0 | 0.00 | 0.00 | 0.00 | 60 | 1018.0 |
| 20260905094503 | 81 | 32 | 0.0 | 1.0 | 0.00 | 0.00 | 0.00 | 57 | 1018.0 |
| 20260905094003 | 81 | 32 | 0.0 | 1.0 | 0.00 | 0.00 | 0.00 | 59 | 1018.0 |
| 20260905093502 | 81 | 32 | 0.0 | 2.0 | 0.00 | 0.00 | 0.00 | 61 | 1018.0 |
| 20260905093004 | 80 | 32 | 0.0 | 2.0 | 0.00 | 0.00 | 0.00 | 60 | 1018.1 |
| 20260905092503 | 80 | 31 | 0.0 | 2.0 | 0.00 | 0.00 | 0.00 | 61 | 1018.1 |
| 20260905091004 | 78 | 31 | 0.0 | 0.0 | 0.00 | 0.00 | 0.00 | 64 | 1018.2 |
| 20260905090004 | 77 | 24 | 0.0 | 1.0 | 0.00 | 0.00 | 0.00 | 64 | 1018.1 |
| 20260905085502 | 77 | 23 | 0.0 | 0.0 | 0.00 | 0.00 | 0.00 | 65 | 1018.1 |
| 20260905085003 | 77 | 23 | 0.0 | 0.0 | 0.00 | 0.00 | 0.00 | 63 | 1018.2 |
| 20260905084503 | 77 | 23 | 0.0 | 0.0 | 0.00 | 0.00 | 0.00 | 64 | 1018.2 |
| 20260905083503 | 76 | 23 | 0.0 | 0.0 | 0.00 | 0.00 | 0.00 | 62 | 1018.1 |
| 20260905083003 | 76 | 23 | 0.0 | 0.0 | 0.00 | 0.00 | 0.00 | 61 | 1018.2 |
| 20260905082503 | 76 | 23 | 0.0 | 0.0 | 0.00 | 0.00 | 0.00 | 63 | 1018.2 |
| 20260905082003 | 76 | 23 | 0.0 | 0.0 | 0.00 | 0.00 | 0.00 | 61 | 1018.2 |
| 20260905081504 | 74 | 23 | 0.0 | 0.0 | 0.00 | 0.00 | 0.00 | 62 | 1018.3 |
| 20260905081004 | 74 | 23 | 0.0 | 0.0 | 0.00 | 0.00 | 0.00 | 67 | 1018.3 |
| 20260905080503 | 74 | 23 | 0.0 | 0.0 | 0.00 | 0.00 | 0.00 | 67 | 1018.2 |
| 20260905080004 | 73 | 23 | 0.0 | 0.0 | 0.00 | 0.00 | 0.00 | 67 | 1018.3 |
| 20260905075503 | 73 | 23 | 0.0 | 0.0 | 0.00 | 0.00 | 0.00 | 69 | 1018.3 |
| 20260905075003 | 72 | 23 | 0.0 | 3.0 | 0.00 | 0.00 | 0.00 | 69 | 1018.3 |
| 20260905074503 | 72 | 21 | 0.0 | 3.0 | 0.00 | 0.00 | 0.00 | 70 | 1018.2 |
| 20260905074003 | 71 | 14 | 0.0 | 3.0 | 0.00 | 0.00 | 0.00 | 71 | 1018.2 |
| 20260905073503 | 71 | 13 | 0.0 | 2.0 | 0.00 | 0.00 | 0.00 | 72 | 1018.3 |
| 20260905073005 | 70 | 13 | 0.0 | 1.0 | 0.00 | 0.00 | 0.00 | 73 | 1018.2 |
| 20260905071503 | 69 | 13 | 0.0 | 0.0 | 0.00 | 0.00 | 0.00 | 76 | 1018.3 |
| 20260905071003 | 68 | 13 | 0.0 | 0.0 | 0.00 | 0.00 | 0.00 | 77 | 1018.2 |
| 20260905070503 | 68 | 13 | 0.0 | 0.0 | 0.00 | 0.00 | 0.00 | 77 | 1018.2 |
| 20260905065503 | 67 | 13 | 0.0 | 0.0 | 0.00 | 0.00 | 0.00 | 78 | 1018.1 |
| 20260905065004 | 67 | 13 | 0.0 | 0.0 | 0.00 | 0.00 | 0.00 | 78 | 1018.2 |
| 20260905064503 | 67 | 13 | 0.0 | 0.0 | 0.00 | 0.00 | 0.00 | 78 | 1018.1 |
| 20260905064003 | 67 | 13 | 0.0 | 0.0 | 0.00 | 0.00 | 0.00 | 78 | 1018.0 |
| 20260905063502 | 67 | 13 | 1.0 | 3.0 | 0.00 | 0.00 | 0.00 | 78 | 1018.0 |
| 20260905062503 | 68 | 13 | 0.0 | 0.0 | 0.00 | 0.00 | 0.00 | 78 | 1018.0 |
| 20260905062004 | 68 | 13 | 0.0 | 2.0 | 0.00 | 0.00 | 0.00 | 78 | 1018.0 |
| 20260905061503 | 68 | 13 | 0.0 | 0.0 | 0.00 | 0.00 | 0.00 | 78 | 1018.0 |
| 20260905061003 | 68 | 13 | 0.0 | 2.0 | 0.00 | 0.00 | 0.00 | 78 | 1017.9 |
| 20260905060503 | 68 | 13 | 2.0 | 3.0 | 0.00 | 0.00 | 0.00 | 78 | 1018.0 |
| 20260905060004 | 68 | 13 | 1.0 | 3.0 | 0.00 | 0.00 | 0.00 | 77 | 1018.0 |
| 20260905055502 | 68 | 13 | 5.0 | 6.0 | 0.00 | 0.00 | 0.00 | 77 | 1017.9 |
| 20260905055004 | 68 | 274 | 1.0 | 5.0 | 0.00 | 0.00 | 0.00 | 77 | 1018.0 |
| 20260905054503 | 69 | 274 | 1.0 | 3.0 | 0.00 | 0.00 | 0.00 | 77 | 1017.9 |
| 20260905054003 | 69 | 274 | 0.0 | 0.0 | 0.00 | 0.00 | 0.00 | 77 | 1017.9 |
| 20260905053002 | 69 | 274 | 0.0 | 0.0 | 0.00 | 0.00 | 0.00 | 76 | 1018.0 |
| 20260905052503 | 69 | 274 | 0.0 | 0.0 | 0.00 | 0.00 | 0.00 | 76 | 1018.1 |
| 20260905052003 | 69 | 274 | 0.0 | 0.0 | 0.00 | 0.00 | 0.00 | 76 | 1018.2 |
| 20260905051504 | 69 | 274 | 0.0 | 0.0 | 0.00 | 0.00 | 0.00 | 76 | 1018.2 |
| 20260905051004 | 69 | 274 | 0.0 | 0.0 | 0.00 | 0.00 | 0.00 | 75 | 1018.3 |
| 20260905050503 | 69 | 274 | 0.0 | 0.0 | 0.00 | 0.00 | 0.00 | 75 | 1018.3 |
| 20260905050004 | 69 | 274 | 0.0 | 0.0 | 0.00 | 0.00 | 0.00 | 75 | 1018.4 |
| 20260905045504 | 70 | 274 | 0.0 | 0.0 | 0.00 | 0.00 | 0.00 | 75 | 1018.4 |
| 20260905045003 | 70 | 274 | 0.0 | 0.0 | 0.00 | 0.00 | 0.00 | 75 | 1018.5 |
| 20260905044503 | 70 | 274 | 0.0 | 1.0 | 0.00 | 0.00 | 0.00 | 74 | 1018.5 |
| 20260905044003 | 70 | 274 | 0.0 | 0.0 | 0.00 | 0.00 | 0.00 | 74 | 1018.6 |
| 20260905043504 | 70 | 274 | 0.0 | 0.0 | 0.00 | 0.00 | 0.00 | 74 | 1018.7 |
| 20260905043004 | 70 | 274 | 1.0 | 3.0 | 0.00 | 0.00 | 0.00 | 73 | 1018.7 |
| 20260905042503 | 70 | 274 | 3.0 | 5.0 | 0.00 | 0.00 | 0.00 | 73 | 1018.8 |
| 20260905042004 | 71 | 274 | 3.0 | 5.0 | 0.00 | 0.00 | 0.00 | 73 | 1018.8 |
| 20260905041003 | 71 | 274 | 2.0 | 3.0 | 0.00 | 0.00 | 0.00 | 72 | 1018.9 |
| 20260905040503 | 71 | 274 | 0.0 | 0.0 | 0.00 | 0.00 | 0.00 | 72 | 1018.9 |
| 20260905040004 | 71 | 274 | 0.0 | 0.0 | 0.00 | 0.00 | 0.00 | 72 | 1018.9 |
| 20260905035503 | 71 | 274 | 0.0 | 0.0 | 0.00 | 0.00 | 0.00 | 72 | 1018.9 |
| 20260905035003 | 71 | 274 | 0.0 | 0.0 | 0.00 | 0.00 | 0.00 | 72 | 1019.0 |
| 20260905034503 | 71 | 274 | 0.0 | 0.0 | 0.00 | 0.00 | 0.00 | 72 | 1019.0 |
| 20260905034003 | 71 | 274 | 0.0 | 0.0 | 0.00 | 0.00 | 0.00 | 72 | 1019.1 |
| 20260905033503 | 71 | 274 | 0.0 | 1.0 | 0.00 | 0.00 | 0.00 | 72 | 1019.1 |
| 20260905033004 | 71 | 274 | 2.0 | 5.0 | 0.00 | 0.00 | 0.00 | 73 | 1019.0 |
| 20260905032503 | 71 | 274 | 1.0 | 5.0 | 0.00 | 0.00 | 0.00 | 72 | 1019.1 |
| 20260905032003 | 71 | 274 | 0.0 | 2.0 | 0.00 | 0.00 | 0.00 | 72 | 1019.2 |
| 20260905031503 | 71 | 274 | 0.0 | 3.0 | 0.00 | 0.00 | 0.00 | 72 | 1019.2 |
| 20260905031003 | 71 | 274 | 1.0 | 3.0 | 0.00 | 0.00 | 0.00 | 72 | 1019.2 |
| 20260905030503 | 71 | 274 | 0.0 | 2.0 | 0.00 | 0.00 | 0.00 | 73 | 1019.2 |
| 20260905030004 | 71 | 274 | 0.0 | 0.0 | 0.00 | 0.00 | 0.00 | 73 | 1019.4 |
| 20260905025504 | 72 | 274 | 0.0 | 0.0 | 0.00 | 0.00 | 0.00 | 73 | 1019.4 |
| 20260905025003 | 72 | 274 | 0.0 | 2.0 | 0.00 | 0.00 | 0.00 | 74 | 1019.4 |
| 20260905024502 | 72 | 274 | 3.0 | 6.0 | 0.00 | 0.00 | 0.00 | 73 | 1019.4 |
| 20260905023504 | 72 | 274 | 0.0 | 0.0 | 0.00 | 0.00 | 0.00 | 72 | 1019.2 |
| 20260905023004 | 72 | 274 | 2.0 | 6.0 | 0.00 | 0.00 | 0.00 | 73 | 1019.2 |
| 20260905022004 | 72 | 275 | 0.0 | 5.0 | 0.00 | 0.00 | 0.00 | 70 | 1019.2 |
| 20260905021503 | 72 | 275 | 0.0 | 3.0 | 0.00 | 0.00 | 0.00 | 71 | 1019.2 |
| 20260905021003 | 72 | 275 | 0.0 | 3.0 | 0.00 | 0.00 | 0.00 | 71 | 1019.2 |
| 20260905020502 | 72 | 275 | 0.0 | 2.0 | 0.00 | 0.00 | 0.00 | 71 | 1019.3 |
| 20260905020004 | 72 | 275 | 0.0 | 0.0 | 0.00 | 0.00 | 0.00 | 70 | 1019.4 |
| 20260905015503 | 72 | 275 | 0.0 | 0.0 | 0.00 | 0.00 | 0.00 | 71 | 1019.4 |
| 20260905015004 | 72 | 275 | 1.0 | 2.0 | 0.00 | 0.00 | 0.00 | 71 | 1019.4 |
| 20260905014002 | 72 | 275 | 0.0 | 0.0 | 0.00 | 0.00 | 0.00 | 73 | 1019.5 |
| 20260905013503 | 72 | 275 | 0.0 | 1.0 | 0.00 | 0.00 | 0.00 | 73 | 1019.5 |
| 20260905013004 | 73 | 275 | 0.0 | 2.0 | 0.00 | 0.00 | 0.00 | 73 | 1019.5 |
| 20260905012503 | 73 | 275 | 2.0 | 3.0 | 0.00 | 0.00 | 0.00 | 74 | 1019.5 |
| 20260905012004 | 73 | 275 | 2.0 | 6.0 | 0.00 | 0.00 | 0.00 | 73 | 1019.5 |
| 20260905011503 | 73 | 283 | 3.0 | 5.0 | 0.00 | 0.00 | 0.00 | 73 | 1019.5 |
| 20260905011002 | 73 | 284 | 0.0 | 2.0 | 0.00 | 0.00 | 0.00 | 73 | 1019.5 |
| 20260905010502 | 73 | 284 | 0.0 | 5.0 | 0.00 | 0.00 | 0.00 | 73 | 1019.4 |
| 20260905010004 | 73 | 282 | 1.0 | 3.0 | 0.00 | 0.00 | 0.00 | 73 | 1019.4 |
| 20260905005504 | 73 | 282 | 0.0 | 2.0 | 0.00 | 0.00 | 0.00 | 73 | 1019.5 |
| 20260905005004 | 73 | 282 | 1.0 | 2.0 | 0.00 | 0.00 | 0.00 | 74 | 1019.5 |
| 20260905004503 | 73 | 282 | 0.0 | 0.0 | 0.00 | 0.00 | 0.00 | 73 | 1019.7 |
| 20260905004001 | 74 | 282 | 0.0 | 0.0 | 0.00 | 0.00 | 0.00 | 72 | 1019.9 |
| 20260905003504 | 74 | 282 | 0.0 | 0.0 | 0.00 | 0.00 | 0.00 | 72 | 1019.9 |
| 20260905003005 | 74 | 282 | 0.0 | 0.0 | 0.00 | 0.00 | 0.00 | 72 | 1019.9 |
| 20260905002503 | 74 | 282 | 1.0 | 3.0 | 0.00 | 0.00 | 0.00 | 72 | 1019.9 |
| 20260905000503 | 74 | 39 | 0.0 | 7.0 | 0.00 | 0.00 | 0.00 | 73 | 1019.8 |
| 20260905000004 | 74 | 35 | 6.0 | 8.0 | 0.00 | 0.00 | 0.00 | 73 | 1019.5 |
| 20260904235503 | 74 | 350 | 1.0 | 5.0 | 0.00 | 0.00 | 0.00 | 73 | 1019.8 |
| 20260904234004 | 74 | 238 | 4.0 | 7.0 | 0.00 | 0.00 | 0.00 | 72 | 1020.1 |
| 20260904233503 | 74 | 238 | 1.0 | 6.0 | 0.00 | 0.00 | 0.00 | 72 | 1020.0 |
| 20260904233005 | 74 | 238 | 2.0 | 5.0 | 0.00 | 0.00 | 0.00 | 72 | 1019.7 |
| 20260904232003 | 74 | 237 | 0.0 | 2.0 | 0.00 | 0.00 | 0.00 | 72 | 1019.6 |
| 20260904231504 | 75 | 237 | 0.0 | 2.0 | 0.00 | 0.00 | 0.00 | 72 | 1019.6 |
| 20260904231003 | 75 | 237 | 0.0 | 0.0 | 0.00 | 0.00 | 0.00 | 72 | 1019.8 |
| 20260904225504 | 75 | 237 | 0.0 | 0.0 | 0.00 | 0.00 | 0.00 | 72 | 1020.3 |
| 20260904225004 | 75 | 237 | 0.0 | 1.0 | 0.00 | 0.00 | 0.00 | 71 | 1019.9 |
| 20260904224004 | 76 | 237 | 5.0 | 8.0 | 0.00 | 0.00 | 0.00 | 70 | 1020.2 |
| 20260904223503 | 76 | 228 | 6.0 | 8.0 | 0.00 | 0.00 | 0.00 | 70 | 1020.2 |
| 20260904222504 | 76 | 233 | 5.0 | 9.0 | 0.00 | 0.00 | 0.00 | 70 | 1020.3 |
| 20260904222002 | 75 | 240 | 7.0 | 9.0 | 0.00 | 0.00 | 0.00 | 69 | 1020.3 |
| 20260904221505 | 75 | 205 | 0.0 | 3.0 | 0.00 | 0.00 | 0.00 | 70 | 1020.3 |
| 20260904221003 | 75 | 205 | 2.0 | 6.0 | 0.00 | 0.00 | 0.00 | 72 | 1020.4 |
| 20260904220503 | 75 | 209 | 7.0 | 12.0 | 0.00 | 0.00 | 0.00 | 72 | 1020.5 |
| 20260904220004 | 75 | 65 | 0.0 | 7.0 | 0.00 | 0.00 | 0.00 | 71 | 1020.5 |
| 20260904215502 | 75 | 64 | 3.0 | 7.0 | 0.00 | 0.00 | 0.00 | 72 | 1020.3 |
| 20260904215004 | 75 | 48 | 1.0 | 8.0 | 0.00 | 0.00 | 0.00 | 73 | 1020.3 |
| 20260904214503 | 74 | 34 | 9.0 | 13.0 | 0.00 | 0.00 | 0.00 | 75 | 1020.5 |
| 20260904213504 | 75 | 61 | 2.0 | 6.0 | 0.00 | 0.00 | 0.00 | 75 | 1021.0 |
| 20260904213004 | 76 | 48 | 5.0 | 8.0 | 0.00 | 0.00 | 0.00 | 75 | 1020.9 |
| 20260904212503 | 76 | 34 | 5.0 | 8.0 | 0.00 | 0.00 | 0.00 | 72 | 1021.2 |
| 20260904212003 | 76 | 221 | 0.0 | 0.0 | 0.00 | 0.00 | 0.00 | 70 | 1021.8 |
| 20260904211502 | 76 | 221 | 0.0 | 0.0 | 0.00 | 0.00 | 0.00 | 71 | 1021.9 |
| 20260904210505 | 77 | 221 | 0.0 | 0.0 | 0.00 | 0.00 | 0.00 | 71 | 1021.7 |
| 20260904210004 | 77 | 221 | 0.0 | 0.0 | 0.00 | 0.00 | 0.00 | 71 | 1021.6 |
| 20260904205504 | 77 | 221 | 0.0 | 0.0 | 0.00 | 0.00 | 0.00 | 71 | 1021.5 |
| 20260904205003 | 77 | 221 | 0.0 | 0.0 | 0.00 | 0.00 | 0.00 | 70 | 1021.4 |
| 20260904204504 | 77 | 221 | 0.0 | 0.0 | 0.00 | 0.00 | 0.00 | 70 | 1021.3 |
| 20260904202004 | 78 | 239 | 5.0 | 7.0 | 0.00 | 0.00 | 0.00 | 69 | 1021.0 |
| 20260904201503 | 78 | 217 | 6.0 | 8.0 | 0.00 | 0.00 | 0.00 | 69 | 1020.8 |
| 20260904200502 | 79 | 222 | 5.0 | 8.0 | 0.00 | 0.00 | 0.00 | 69 | 1020.3 |
| 20260904200004 | 79 | 234 | 3.0 | 9.0 | 0.00 | 0.00 | 0.00 | 69 | 1020.3 |
| 20260904195503 | 79 | 40 | 1.0 | 2.0 | 0.00 | 0.00 | 0.00 | 68 | 1020.1 |
| 20260904195003 | 79 | 40 | 0.0 | 1.0 | 0.00 | 0.00 | 0.00 | 67 | 1020.0 |
| 20260904194504 | 79 | 40 | 0.0 | 2.0 | 0.00 | 0.00 | 0.00 | 67 | 1020.1 |
| 20260904194004 | 80 | 40 | 2.0 | 5.0 | 0.00 | 0.00 | 0.00 | 66 | 1020.2 |
| 20260904193503 | 80 | 38 | 5.0 | 8.0 | 0.00 | 0.00 | 0.00 | 65 | 1020.3 |
| 20260904193005 | 81 | 237 | 0.0 | 5.0 | 0.00 | 0.00 | 0.00 | 65 | 1020.1 |
| 20260904192504 | 81 | 237 | 0.0 | 0.0 | 0.00 | 0.00 | 0.00 | 64 | 1020.1 |
| 20260904192003 | 81 | 237 | 0.0 | 0.0 | 0.00 | 0.00 | 0.00 | 64 | 1020.0 |
| 20260904191504 | 82 | 237 | 0.0 | 0.0 | 0.00 | 0.00 | 0.00 | 64 | 1020.0 |
| 20260904191003 | 82 | 237 | 0.0 | 0.0 | 0.00 | 0.00 | 0.00 | 64 | 1020.1 |
| 20260904190504 | 82 | 237 | 0.0 | 2.0 | 0.00 | 0.00 | 0.00 | 63 | 1020.0 |
| 20260904190003 | 83 | 237 | 2.0 | 5.0 | 0.00 | 0.00 | 0.00 | 62 | 1020.1 |
| 20260904185502 | 83 | 237 | 2.0 | 5.0 | 0.00 | 0.00 | 0.00 | 62 | 1020.0 |
| 20260904185004 | 83 | 237 | 2.0 | 6.0 | 0.00 | 0.00 | 0.00 | 62 | 1020.1 |
| 20260904184503 | 83 | 237 | 4.0 | 7.0 | 0.00 | 0.00 | 0.00 | 62 | 1020.2 |
| 20260904184003 | 83 | 234 | 5.0 | 7.0 | 0.00 | 0.00 | 0.00 | 61 | 1020.0 |
| 20260904183503 | 83 | 234 | 6.0 | 9.0 | 0.00 | 0.00 | 0.00 | 61 | 1020.0 |
| 20260904183004 | 84 | 225 | 3.0 | 6.0 | 0.00 | 0.00 | 0.00 | 61 | 1020.1 |
| 20260904182502 | 84 | 225 | 2.0 | 7.0 | 0.00 | 0.00 | 0.00 | 60 | 1020.1 |
| 20260904182003 | 84 | 225 | 3.0 | 7.0 | 0.00 | 0.00 | 0.00 | 60 | 1020.0 |
| 20260904181502 | 84 | 228 | 5.0 | 9.0 | 0.00 | 0.00 | 0.00 | 60 | 1020.1 |
| 20260904181003 | 84 | 223 | 5.0 | 7.0 | 0.00 | 0.00 | 0.00 | 60 | 1020.2 |
| 20260904180503 | 84 | 217 | 5.0 | 8.0 | 0.00 | 0.00 | 0.00 | 61 | 1020.1 |
| 20260904174503 | 84 | 227 | 6.0 | 8.0 | 0.00 | 0.00 | 0.00 | 61 | 1019.9 |
| 20260904174003 | 84 | 240 | 5.0 | 8.0 | 0.00 | 0.00 | 0.00 | 61 | 1019.8 |
| 20260904173503 | 84 | 220 | 6.0 | 10.0 | 0.00 | 0.00 | 0.00 | 59 | 1019.8 |
| 20260904173003 | 84 | 217 | 7.0 | 12.0 | 0.00 | 0.00 | 0.00 | 60 | 1019.7 |
| 20260904172504 | 84 | 207 | 7.0 | 10.0 | 0.00 | 0.00 | 0.00 | 61 | 1019.6 |
| 20260904172003 | 84 | 214 | 4.0 | 9.0 | 0.00 | 0.00 | 0.00 | 60 | 1019.5 |
| 20260904171503 | 85 | 207 | 6.0 | 12.0 | 0.00 | 0.00 | 0.00 | 60 | 1019.5 |
| 20260904171004 | 85 | 215 | 5.0 | 12.0 | 0.00 | 0.00 | 0.00 | 59 | 1019.5 |
| 20260904165503 | 85 | 237 | 5.0 | 9.0 | 0.00 | 0.00 | 0.00 | 61 | 1019.6 |
| 20260904165004 | 85 | 260 | 6.0 | 9.0 | 0.00 | 0.00 | 0.00 | 60 | 1019.6 |
| 20260904164504 | 85 | 252 | 5.0 | 12.0 | 0.00 | 0.00 | 0.00 | 61 | 1019.5 |
| 20260904164004 | 86 | 231 | 6.0 | 12.0 | 0.00 | 0.00 | 0.00 | 60 | 1019.4 |
| 20260904163504 | 86 | 230 | 9.0 | 13.0 | 0.00 | 0.00 | 0.00 | 58 | 1019.2 |
| 20260904163004 | 87 | 249 | 10.0 | 15.0 | 0.00 | 0.00 | 0.00 | 57 | 1019.2 |
| 20260904162501 | 86 | 244 | 10.0 | 13.0 | 0.00 | 0.00 | 0.00 | 58 | 1019.1 |
| 20260904162003 | 86 | 238 | 7.0 | 12.0 | 0.00 | 0.00 | 0.00 | 56 | 1019.0 |
| 20260904161504 | 87 | 217 | 7.0 | 13.0 | 0.00 | 0.00 | 0.00 | 55 | 1019.0 |
| 20260904161003 | 88 | 228 | 7.0 | 13.0 | 0.00 | 0.00 | 0.00 | 53 | 1018.8 |
| 20260904160504 | 90 | 244 | 10.0 | 15.0 | 0.00 | 0.00 | 0.00 | 50 | 1018.8 |